Location: Newark
(40.0667°N, 18.0500°E)
Time: 19:22:12
(UTC+00:00)

N. Korean satellite - Pass Details

Date: 30 January 2020
Orbit: 456 x 506 km, 97.2° (Epoch: 17 February)

Event Time Altitude Azimuth Distance (km) Brightness Sun altitude
Rises 05:09:18 0° 1° (N) 2,557 10.1 -9.8°
Reaches altitude 10° 05:11:30 10° 351° (N) 1,681 9.1 -9.4°
Maximum altitude 05:14:44 31° 288° (WNW) 879 7.3 -8.8°
Drops below altitude 10° 05:17:59 10° 224° (SW) 1,692 9.0 -8.2°
Sets 05:20:13 0° 214° (SW) 2,577 10.1 -7.8°
